Tracking 28790 objects as of 19-Apr-2024
HD Live streaming from Space Station
objects crossing your sky now

COSMOS 2251 DEB

Track COSMOS 2251 DEB now!
10-day predictions


NORAD ID: 33791
Int'l Code: 1993-036AG
Perigee: 751.4 km
Apogee: 794.0 km
Inclination: 74.2 °
Period: 100.1 minutes
Semi major axis: 7143 km
RCS: 0.2004 m2 (medium)
Launch date: June 16, 1993
Source: Commonwealth of Independent States (former USSR) (CIS)
Launch site: PLESETSK MISSILE AND SPACE COMPLEX (PKMTR)

Note: This is SATELLITE DEBRIS
Your satellite tracking list
Your tracking list is empty




NASA's NSSDC Master Catalog

Two Line Element Set (TLE):
1 33791U 93036AG  24110.20108514  .00008690  00000-0  28714-2 0  9990
2 33791  74.1764  62.8911 0029798  65.5063  48.3197 14.37856215793778
Source of the keplerian elements: AFSPC